DW9169 Weather Reports


time (UTC)temp
C
wind
direction
speed
KPH
gust
KPH
rain 1hr
cm
rain 24hr
cm
rain mn
cm
humidity
%
barometer
mb
20260507140908 15 64 1.6 3.2 0.00 0.05 0.05 60 1014.6
20260507140408 15 292 1.6 12.9 0.00 0.05 0.05 64 1014.6
20260507135908 15 92 1.6 8.0 0.00 0.05 0.05 64 1014.7
20260507135408 15 71 4.8 8.0 0.00 0.05 0.05 65 1014.7
20260507133408 15 55 3.2 9.7 0.00 0.05 0.05 69 1014.7
20260507132908 15 49 3.2 4.8 0.00 0.05 0.05 69 1014.7
20260507132408 15 76 3.2 9.7 0.00 0.05 0.05 73 1014.7
20260507131408 15 81 1.6 4.8 0.00 0.05 0.05 72 1014.7
20260507130408 15 99 1.6 4.8 0.00 0.05 0.05 69 1014.8
20260507125908 15 70 1.6 4.8 0.00 0.05 0.05 69 1014.9
20260507125408 15 102 3.2 4.8 0.00 0.05 0.05 68 1014.9
20260507124908 15 38 1.6 4.8 0.00 0.05 0.05 69 1014.8
20260507124408 15 131 1.6 8.0 0.00 0.05 0.05 69 1014.8
20260507123908 15 298 1.6 4.8 0.00 0.05 0.05 71 1014.8
20260507122408 15 53 1.6 3.2 0.00 0.05 0.05 74 1014.8
20260507121908 15 65 0.0 4.8 0.00 0.05 0.05 76 1014.8
20260507121407 15 265 0.0 4.8 0.00 0.05 0.05 75 1014.8
20260507120908 14 123 3.2 4.8 0.00 0.05 0.05 72 1014.8
20260507120408 14 146 3.2 4.8 0.00 0.05 0.05 71 1014.8
20260507115908 14 16 1.6 4.8 0.00 0.05 0.05 73 1014.8
20260507115408 14 279 3.2 4.8 0.00 0.05 0.05 74 1014.8
20260507114908 14 326 1.6 3.2 0.00 0.05 0.05 76 1014.8
20260507113908 14 266 1.6 4.8 0.00 0.05 0.05 75 1014.8
20260507113408 14 266 1.6 4.8 0.00 0.05 0.05 76 1014.8
20260507112907 14 225 1.6 4.8 0.00 0.05 0.05 78 1014.8
20260507112407 13 271 3.2 8.0 0.00 0.05 0.05 76 1014.8
20260507111908 13 201 1.6 4.8 0.00 0.05 0.05 76 1014.9
20260507111407 13 239 3.2 4.8 0.00 0.05 0.05 75 1014.9
20260507110908 13 325 1.6 4.8 0.00 0.05 0.05 76 1014.9
20260507110408 13 106 1.6 3.2 0.00 0.05 0.05 76 1015.0
20260507105908 13 322 1.6 3.2 0.00 0.05 0.05 76 1015.0
20260507104908 13 0 1.6 3.2 0.00 0.05 0.05 75 1015.0
20260507104408 14 59 1.6 3.2 0.00 0.05 0.05 76 1015.0
20260507103908 14 249 1.6 9.7 0.00 0.05 0.05 77 1015.1
20260507103408 13 200 1.6 4.8 0.00 0.05 0.05 77 1015.0
20260507102908 13 272 3.2 8.0 0.00 0.05 0.05 79 1015.0
20260507102408 13 270 1.6 4.8 0.00 0.05 0.05 79 1015.0
20260507101908 13 41 1.6 4.8 0.00 0.05 0.05 78 1015.0
20260507101408 13 86 1.6 4.8 0.00 0.05 0.05 76 1015.0
20260507100908 13 303 1.6 8.0 0.00 0.05 0.05 79 1015.0
20260507100408 12 63 1.6 4.8 0.00 0.05 0.05 79 1015.1
20260507095908 12 234 1.6 3.2 0.00 0.05 0.05 79 1015.0
20260507095408 12 277 0.0 1.6 0.00 0.05 0.05 78 1015.0
20260507094908 12 265 1.6 4.8 0.00 0.05 0.05 80 1015.0
20260507094408 12 245 3.2 4.8 0.00 0.05 0.05 78 1014.9
20260507093908 12 63 3.2 4.8 0.00 0.05 0.05 78 1015.0
20260507093408 12 63 3.2 4.8 0.00 0.05 0.05 81 1014.9
20260507092908 12 271 1.6 4.8 0.00 0.08 0.05 82 1014.9
20260507091907 12 104 3.2 4.8 0.00 0.08 0.05 81 1014.8
20260507091408 12 65 3.2 4.8 0.00 0.10 0.05 82 1014.8
20260507090908 12 17 1.6 4.8 0.00 0.10 0.05 82 1014.8
20260507090408 12 68 1.6 3.2 0.00 0.10 0.05 84 1014.8
20260507085908 12 129 0.0 0.0 0.00 0.13 0.05 84 1014.8
20260507085408 11 3 0.0 0.0 0.00 0.13 0.05 84 1014.8
20260507084908 11 54 1.6 4.8 0.00 0.15 0.05 85 1014.8
20260507084409 11 63 0.0 1.6 0.00 0.15 0.05 85 1014.7
20260507083908 11 46 1.6 3.2 0.00 0.15 0.05 85 1014.8
20260507083408 11 224 0.0 1.6 0.00 0.15 0.05 86 1014.7
20260507082908 11 269 1.6 3.2 0.00 0.15 0.05 86 1014.7
20260507082408 11 78 0.0 1.6 0.00 0.15 0.05 86 1014.7
20260507081907 11 65 1.6 1.6 0.00 0.15 0.05 87 1014.6
20260507080909 11 7 0.0 0.0 0.00 0.15 0.05 87 1014.6
20260507080408 10 303 0.0 0.0 0.00 0.15 0.05 87 1014.5
20260507075908 10 294 0.0 0.0 0.00 0.15 0.05 87 1014.5
20260507075408 10 36 0.0 0.0 0.00 0.15 0.05 87 1014.5
20260507074407 10 69 0.0 0.0 0.00 0.15 0.05 87 1014.5
20260507073908 10 245 0.0 0.0 0.00 0.15 0.05 88 1014.4
20260507073408 10 251 0.0 0.0 0.00 0.15 0.05 88 1014.4
20260507072908 10 251 0.0 0.0 0.00 0.15 0.05 88 1014.4
20260507072408 9 257 0.0 0.0 0.00 0.15 0.05 88 1014.4
20260507071908 9 278 0.0 0.0 0.00 0.18 0.05 88 1014.4
20260507070907 9 279 0.0 0.0 0.00 0.18 0.05 88 1014.3
20260507070408 9 285 0.0 0.0 0.00 0.18 0.05 88 1014.3
20260507065908 9 5 0.0 0.0 0.00 0.18 0.05 88 1014.3
20260507065408 8 5 0.0 0.0 0.00 0.18 0.05 88 1014.2
20260507064908 8 5 0.0 0.0 0.00 0.18 0.05 88 1014.2
20260507064407 8 5 0.0 0.0 0.00 0.18 0.05 88 1014.2
20260507063908 8 9 0.0 0.0 0.00 0.18 0.05 88 1014.1
20260507063408 8 31 0.0 0.0 0.00 0.20 0.05 88 1014.1
20260507062908 8 31 0.0 0.0 0.00 0.23 0.05 88 1014.0
20260507062409 8 31 0.0 0.0 0.00 0.23 0.05 88 1014.0
20260507061908 8 31 0.0 0.0 0.00 0.23 0.05 88 1013.9
20260507061408 8 31 0.0 0.0 0.00 0.25 0.05 88 1013.9
20260507060908 8 31 0.0 0.0 0.00 0.25 0.05 88 1013.9
20260507060408 8 56 0.0 0.0 0.00 0.25 0.05 88 1013.9
20260507055907 8 56 0.0 0.0 0.00 0.25 0.05 88 1013.8
20260507054907 8 56 0.0 0.0 0.00 0.28 0.05 89 1013.7
20260507054408 8 56 0.0 0.0 0.00 0.30 0.05 89 1013.6
20260507053908 8 56 0.0 0.0 0.00 0.33 0.05 89 1013.6
20260507053408 8 56 0.0 0.0 0.00 0.33 0.05 89 1013.5
20260507052907 8 56 0.0 0.0 0.00 0.33 0.05 89 1013.5
20260507051908 7 56 0.0 0.0 0.00 0.38 0.05 89 1013.4
20260507051408 7 56 0.0 0.0 0.00 0.41 0.05 89 1013.4
20260507050908 7 56 0.0 0.0 0.00 0.41 0.05 89 1013.4
20260507050408 7 56 0.0 0.0 0.00 0.43 0.05 89 1013.3
20260507045908 7 56 0.0 0.0 0.00 0.43 0.05 89 1013.2
20260507045408 7 56 0.0 0.0 0.00 0.43 0.05 89 1013.2
20260507044908 7 56 0.0 0.0 0.00 0.46 0.05 89 1013.1
20260507044407 7 56 0.0 0.0 0.00 0.46 0.05 89 1013.1
20260507043908 7 56 0.0 0.0 0.00 0.48 0.05 89 1013.0
20260507043408 7 56 0.0 0.0 0.00 0.48 0.05 89 1013.0
20260507042908 7 56 0.0 0.0 0.00 0.51 0.05 89 1013.0
20260507042408 7 56 0.0 0.0 0.00 0.51 0.05 89 1013.0
20260507041408 7 56 0.0 0.0 0.03 0.51 0.05 89 1012.9
20260507040408 7 56 0.0 0.0 0.03 0.51 0.05 89 1012.8
20260507035908 7 56 0.0 0.0 0.03 0.51 0.05 89 1012.8
20260507035408 7 56 0.0 0.0 0.03 0.51 0.05 89 1012.8
20260507034907 7 56 0.0 0.0 0.03 0.53 0.05 89 1012.8
20260507034408 7 56 0.0 0.0 0.03 0.53 0.05 89 1012.8
20260507033907 7 56 0.0 0.0 0.03 0.53 0.05 89 1012.7
20260507033407 7 56 0.0 0.0 0.03 0.56 0.05 89 1012.7
20260507032908 7 56 0.0 0.0 0.03 0.58 0.05 89 1012.7
20260507031907 7 56 0.0 0.0 0.00 0.56 0.03 89 1012.7
20260507031408 7 56 0.0 0.0 0.00 0.58 0.03 89 1012.6
20260507030407 7 56 0.0 0.0 0.03 0.58 0.03 89 1012.6
20260507025908 7 56 0.0 0.0 0.03 0.58 0.03 89 1012.6
20260507025408 7 56 0.0 0.0 0.03 0.58 0.03 89 1012.6
20260507024908 7 56 0.0 0.0 0.03 0.58 0.03 89 1012.6
20260507024409 7 56 0.0 0.0 0.03 0.58 0.03 89 1012.6
20260507023908 7 56 0.0 0.0 0.03 0.58 0.03 89 1012.5
20260507022908 7 56 0.0 0.0 0.03 0.61 0.03 89 1012.5
20260507021907 7 56 0.0 0.0 0.03 0.61 0.03 89 1012.5
20260507020907 7 56 0.0 0.0 0.00 0.61 0.00 89 1012.4
20260507020408 7 56 0.0 0.0 0.00 0.61 0.00 89 1012.4
20260507015908 7 56 0.0 0.0 0.00 0.61 0.00 89 1012.3
20260507015408 7 56 0.0 0.0 0.00 0.61 0.00 89 1012.2
20260507014909 7 56 0.0 0.0 0.00 0.61 0.00 89 1012.2
20260507014407 7 56 0.0 0.0 0.00 0.61 0.00 89 1012.2
20260507013907 7 56 0.0 0.0 0.00 0.61 0.00 89 1012.2
20260507013408 7 56 0.0 0.0 0.00 0.64 0.00 89 1012.2
20260507012908 7 56 0.0 0.0 0.00 0.64 0.00 89 1012.1
20260507012407 7 56 0.0 0.0 0.00 0.64 0.00 89 1012.1
20260507011409 7 56 0.0 0.0 0.00 0.66 0.00 89 1012.2
20260507010408 7 56 0.0 0.0 0.00 0.69 0.00 89 1012.2
20260507005907 7 56 0.0 0.0 0.00 0.69 0.00 89 1012.2
20260507004907 6 56 0.0 0.0 0.00 0.71 0.00 89 1012.1
20260507004407 7 56 0.0 0.0 0.00 0.71 0.00 89 1012.0
20260507003908 6 56 0.0 0.0 0.00 0.71 0.00 89 1012.1
20260507003407 6 56 0.0 0.0 0.00 0.71 0.00 89 1012.1
20260507002907 6 56 0.0 0.0 0.00 0.74 0.00 89 1012.1
20260507001908 6 56 0.0 0.0 0.00 0.74 0.00 89 1012.0
20260507001409 6 56 0.0 0.0 0.00 0.76 0.00 89 1012.0
20260507000910 6 56 0.0 0.0 0.00 0.76 0.00 88 1012.0
20260507000413 6 56 0.0 0.0 0.00 0.76 0.00 88 1011.9
20260506235908 6 56 0.0 0.0 0.00 0.79 0.00 88 1011.9
20260506235409 6 56 0.0 0.0 0.00 0.79 0.00 88 1011.9
20260506234907 6 56 0.0 0.0 0.00 0.79 0.00 88 1011.9
20260506234408 6 56 0.0 0.0 0.00 0.79 0.00 88 1011.9
20260506233407 6 56 0.0 0.0 0.00 0.81 0.00 88 1011.8
20260506232407 6 56 0.0 0.0 0.00 0.81 0.00 88 1011.7
20260506231908 6 56 0.0 0.0 0.00 0.84 0.00 88 1011.7
20260506231407 6 56 0.0 0.0 0.00 0.84 0.00 88 1011.7
20260506230908 6 56 0.0 0.0 0.00 0.84 0.00 88 1011.6
20260506230408 6 56 0.0 0.0 0.00 0.86 0.00 88 1011.6
20260506225908 6 56 0.0 0.0 0.00 0.86 0.00 88 1011.5
20260506225408 6 56 0.0 0.0 0.00 0.89 0.00 88 1011.5
20260506224408 6 56 0.0 0.0 0.00 0.89 0.00 88 1011.5
20260506223908 7 56 0.0 0.0 0.00 0.89 0.00 88 1011.4
20260506223407 7 73 0.0 0.0 0.00 0.89 0.00 88 1011.3
20260506222907 7 73 0.0 0.0 0.00 0.89 0.00 88 1011.3
20260506222408 7 73 0.0 0.0 0.00 0.89 0.00 88 1011.2
20260506221408 7 73 0.0 0.0 0.00 0.89 0.00 88 1011.2
20260506220908 7 75 0.0 0.0 0.00 0.91 0.00 87 1011.1
20260506220407 7 75 0.0 0.0 0.00 0.91 0.00 88 1011.2
20260506215909 7 75 0.0 0.0 0.00 0.91 0.91 87 1011.1
20260506215407 8 76 0.0 0.0 0.00 0.91 0.91 88 1011.1
20260506214908 8 77 0.0 0.0 0.00 0.94 0.91 87 1011.1
20260506214407 8 68 0.0 0.0 0.00 0.94 0.91 87 1011.1
20260506213408 8 73 0.0 0.0 0.00 0.97 0.91 87 1011.0
20260506212908 8 74 0.0 0.0 0.00 0.97 0.91 87 1011.0
20260506212407 8 71 1.6 3.2 0.00 0.99 0.91 87 1010.9
20260506211908 8 58 0.0 4.8 0.00 0.99 0.91 88 1010.9
20260506211408 8 75 1.6 4.8 0.00 0.99 0.91 88 1010.9
20260506210908 8 44 0.0 0.0 0.00 0.99 0.91 87 1010.8
20260506210407 8 42 0.0 0.0 0.00 1.02 0.91 87 1010.8
20260506205908 9 39 0.0 0.0 0.00 1.02 0.91 87 1010.7
20260506205407 9 39 0.0 0.0 0.00 1.02 0.91 87 1010.7
20260506204907 9 39 0.0 0.0 0.00 1.02 0.91 87 1010.6
20260506204408 9 39 0.0 0.0 0.00 1.04 0.91 87 1010.6
20260506203907 9 37 0.0 0.0 0.00 1.04 0.91 87 1010.5
20260506203407 9 37 0.0 0.0 0.00 1.04 0.91 87 1010.5
20260506202907 9 77 0.0 0.0 0.00 1.07 0.91 87 1010.4
20260506202407 9 74 0.0 0.0 0.00 1.07 0.91 87 1010.3
20260506201908 9 76 0.0 0.0 0.00 1.09 0.91 87 1010.3
20260506200907 10 49 0.0 0.0 0.00 1.09 0.91 87 1010.3
20260506200408 10 45 0.0 0.0 0.00 1.09 0.91 87 1010.2
20260506195907 10 31 0.0 0.0 0.00 1.09 0.91 87 1010.1
20260506195408 10 31 0.0 0.0 0.00 1.09 0.91 87 1010.1
20260506194908 10 10 0.0 0.0 0.00 1.09 0.91 87 1010.0
20260506194407 10 355 0.0 0.0 0.00 1.12 0.91 87 1010.0
20260506193907 10 355 0.0 0.0 0.00 1.12 0.91 87 1009.9
20260506193408 10 322 0.0 0.0 0.00 1.12 0.91 87 1009.9
20260506192407 10 322 0.0 0.0 0.00 1.14 0.91 87 1009.8
20260506191907 10 321 0.0 0.0 0.00 1.14 0.91 87 1009.8
20260506191407 10 321 0.0 0.0 0.00 1.14 0.91 87 1009.7
20260506190407 10 321 0.0 0.0 0.00 1.17 0.91 87 1009.6
20260506185907 10 321 0.0 0.0 0.00 1.17 0.91 87 1009.5
20260506185408 10 321 0.0 0.0 0.00 1.17 0.91 87 1009.5
20260506184407 10 355 0.0 0.0 0.00 1.17 0.91 87 1009.4
20260506183907 10 355 0.0 0.0 0.00 1.17 0.91 87 1009.3
20260506183407 10 355 0.0 0.0 0.00 1.17 0.91 87 1009.3
20260506181908 11 355 0.0 0.0 0.00 1.19 0.91 87 1009.1
20260506181407 11 355 0.0 0.0 0.00 1.19 0.91 87 1009.1
20260506180908 11 355 0.0 0.0 0.00 1.22 0.91 87 1009.0
20260506180408 11 355 0.0 0.0 0.00 1.22 0.91 87 1009.0
20260506175908 11 355 0.0 0.0 0.00 1.22 0.91 87 1008.9
20260506175407 11 355 0.0 0.0 0.00 1.24 0.91 87 1008.9
20260506174907 11 355 0.0 0.0 0.00 1.24 0.91 87 1008.8
20260506174408 11 355 0.0 0.0 0.00 1.24 0.91 87 1008.7
20260506173407 11 355 0.0 0.0 0.00 1.24 0.91 87 1008.7
20260506172908 11 355 0.0 0.0 0.00 1.24 0.91 87 1008.6
20260506172408 11 355 0.0 0.0 0.00 1.24 0.91 87 1008.5
20260506171907 11 351 0.0 0.0 0.00 1.24 0.91 87 1008.5
20260506170908 11 23 0.0 0.0 0.00 1.24 0.91 87 1008.4
20260506170409 11 121 0.0 0.0 0.00 1.24 0.91 87 1008.4
20260506165407 11 121 0.0 0.0 0.00 1.24 0.91 87 1008.3
20260506164407 11 121 0.0 0.0 0.00 1.24 0.91 87 1008.2
20260506163907 11 121 0.0 0.0 0.00 1.24 0.91 87 1008.2
20260506163407 11 122 0.0 0.0 0.00 1.24 0.91 87 1008.2
20260506162907 11 99 0.0 0.0 0.00 1.24 0.91 87 1008.2
20260506162407 11 99 0.0 0.0 0.00 1.24 0.91 87 1008.2
20260506161407 11 99 0.0 0.0 0.00 1.24 0.91 87 1008.3
20260506160907 11 107 0.0 0.0 0.00 1.24 0.91 87 1008.2
20260506160407 11 111 0.0 0.0 0.00 1.24 0.91 87 1008.2
20260506155907 11 99 0.0 0.0 0.00 1.24 0.91 87 1008.2
20260506155407 11 94 0.0 0.0 0.00 1.24 0.91 87 1008.2
20260506154907 11 28 0.0 0.0 0.00 1.24 0.91 87 1008.2
20260506154407 11 345 0.0 0.0 0.00 1.24 0.91 87 1008.2
20260506153907 12 274 0.0 0.0 0.00 1.24 0.91 87 1008.2
20260506153408 12 275 0.0 0.0 0.00 1.24 0.91 87 1008.2
20260506152907 12 275 0.0 0.0 0.00 1.24 0.91 87 1008.1
20260506152407 12 274 0.0 0.0 0.00 1.24 0.91 87 1008.2
20260506151407 11 274 0.0 0.0 0.00 1.24 0.91 87 1008.2
20260506150907 11 275 0.0 0.0 0.00 1.24 0.91 87 1008.2
20260506150408 11 275 0.0 0.0 0.00 1.24 0.91 87 1008.2
20260506145908 12 274 0.0 0.0 0.00 1.24 0.91 87 1008.2
20260506145407 12 274 0.0 0.0 0.00 1.24 0.91 87 1008.2
20260506144907 12 274 0.0 0.0 0.00 1.24 0.91 87 1008.2
20260506144407 12 274 0.0 0.0 0.00 1.24 0.91 87 1008.2
20260506143907 12 274 0.0 0.0 0.00 1.24 0.91 87 1008.1
20260506143407 12 269 0.0 0.0 0.00 1.24 0.91 87 1008.1
20260506142907 12 264 1.6 3.2 0.00 1.24 0.91 87 1008.1
20260506141907 12 265 0.0 0.0 0.00 1.24 0.91 87 1008.1
20260506141408 12 282 0.0 0.0 0.00 1.24 0.91 87 1008.1